Regional Weather Roundup
Issued by NWS

Home | Current Version | Previous Version | Text Only | Print | Product List | Glossary On
Versions: 1 2 3 4 5 6 7 8 9 10 11 12 13 14 15 16 17 18 19 20 21 22 23 24 25 26 27 28 29 30 31 32 33 34 35 36 37 38 39 40 41 42 43 44 45 46 47 48 49 50
000
ASUS43 KLMK 281410
RWRKY
KENTUCKY REGIONAL WEATHER ROUNDUP
NATIONAL WEATHER SERVICE LOUISVILLE KY
1000 AM EDT MON JUL 28 2014

NOTE "FAIR" INDICATES FEW OR NO CLOUDS BELOW 12,000 FEET
WITH NO SIGNIFICANT WEATHER AND/OR OBSTRUCTIONS TO VISIBILITY.

KYZ001>023-026-027-061>063-070>075-281500-
WESTERN AND SOUTH CENTRAL KENTUCKY

CITY           SKY/WX    TMP DP  RH WIND       PRES   REMARKS
PADUCAH        SUNNY     74  61  63 NW10      30.05R
HENDERSON      MOSUNNY   70  61  73 NW8       30.01S
OWENSBORO      MOSUNNY   71  61  70 N9        30.01R
HOPKINSVILLE   SUNNY     73  61  66 NW9       30.03R
BOWLING GREEN  SUNNY     73  60  63 VRB7      30.00R
GLASGOW        SUNNY     70  60  70 W7        29.99R
$$

KYZ024-025-028>034-038-045-046-053-281500-
NORTH CENTRAL KENTUCKY

CITY           SKY/WX    TMP DP  RH WIND       PRES   REMARKS
LOUISVILLE/SDF CLOUDY    69  60  73 NW14      29.97R
LOUISVILLE/LOU PTSUNNY   70  58  65 NW14      29.97R
FORT KNOX      CLOUDY    69  62  77 NW9       29.97R
$$

KYZ035>037-039>044-047>052-055>060-089>105-281500-
NORTHEAST KENTUCKY

CITY           SKY/WX    TMP DP  RH WIND       PRES   REMARKS
LEXINGTON      CLOUDY    68  60  75 NW12      29.96R
COVINGTON      CLOUDY    66  59  78 NW9       29.94R
FRANKFORT      CLOUDY    67  58  72 NW8G17    29.95R
$$

KYZ054-064>069-076>088-106>120-281500-
SOUTHEAST KENTUCKY

CITY           SKY/WX    TMP DP  RH WIND       PRES   REMARKS
JACKSON        PTSUNNY   68  61  78 VRB6      29.94R
LONDON         SUNNY     71  60  68 W10       29.96S
SOMERSET       SUNNY     70  61  73 NW8       29.98R
MIDDLESBORO    PTSUNNY   71  61  70 W6        29.97R
MONTICELLO     SUNNY     72  63  73 W8        30.00R
$$




USA.gov is the U.S. government's official web portal to all federal, state and local government web resources and services.